,,,PA_Meas_PMT16A,,PR_Meas_QMR101_102,,RH_Meas_QMH101,,SR_Meas_QMS101,,TA_Meas_QMH101,,GenWind,,GenWind,
date,time,status,PA,status,PR,status,RH,status,SR,status,TA,status,DirAvg,status,SpdAvg,
2012-03-24, 00:00:04,VALID,1005.27,VALID,0,VALID,94.56,VALID,0,VALID,25.2786,VALID,347,VALID,0.498047,
2012-03-24, 00:01:04,VALID,1005.27,VALID,0,VALID,94.5676,VALID,0,VALID,25.3195,VALID,348,VALID,0.0046875,
2012-03-24, 00:02:04,VALID,1005.25,VALID,0,VALID,94.5829,VALID,0,VALID,25.339,VALID,348,VALID,0,
2012-03-24, 00:03:04,VALID,1005.27,VALID,0,VALID,94.5676,VALID,0,VALID,25.3604,VALID,320,VALID,0.173828,
2012-03-24, 00:04:04,VALID,1005.32,VALID,0,VALID,94.4761,VALID,0,VALID,25.339,VALID,291,VALID,1.37383,
2012-03-24, 00:05:04,VALID,1005.34,VALID,0,VALID,94.415,VALID,0,VALID,25.3584,VALID,354,VALID,0.418359,
2012-03-24, 00:06:04,VALID,1005.44,VALID,0,VALID,94.3387,VALID,0,VALID,25.3779,VALID,287,VALID,2.71055,
2012-03-24, 00:07:04,VALID,1005.52,VALID,0,VALID,94.2853,VALID,0,VALID,25.3779,VALID,302,VALID,1.55664,
2012-03-24, 00:08:04,VALID,1005.54,VALID,0,VALID,92.8282,VALID,0,VALID,25.2027,VALID,280,VALID,2.76758,
2012-03-24, 00:09:04,VALID,1005.66,VALID,0,VALID,90.715,VALID,0,VALID,25.0274,VALID,290,VALID,2.6457,
2012-03-24, 00:10:04,VALID,1005.74,VALID,0.5,VALID,91.4169,VALID,0,VALID,24.9709,VALID,285,VALID,1.24648,
2012-03-24, 00:11:04,VALID,1005.82,VALID,0.5,VALID,91.5618,VALID,0,VALID,24.8327,VALID,292,VALID,2.2293,
2012-03-24, 00:12:04,VALID,1005.82,VALID,0,VALID,91.2414,VALID,0,VALID,24.6964,VALID,288,VALID,2.85469,
2012-03-24, 00:13:04,VALID,1005.9,VALID,0.5,VALID,90.9591,VALID,0,VALID,24.4609,VALID,354,VALID,1.59297,
2012-03-24, 00:14:04,VALID,1005.89,VALID,0,VALID,89.914,VALID,0,VALID,24.2875,VALID,290,VALID,2.75625,
2012-03-24, 00:15:04,VALID,1005.95,VALID,0,VALID,90.9744,VALID,0,VALID,24.1494,VALID,265,VALID,1.75625,
2012-03-24, 00:16:04,VALID,1005.91,VALID,0,VALID,91.5237,VALID,0,VALID,24.0539,VALID,23,VALID,0.717578,
2012-03-24, 00:17:04,VALID,1005.91,VALID,0,VALID,91.455,VALID,0,VALID,23.9371,VALID,278,VALID,1.35859,
2012-03-24, 00:18:04,VALID,1005.94,VALID,0,VALID,91.4321,VALID,0,VALID,23.8787,VALID,299,VALID,1.7375,
2012-03-24, 00:19:04,VALID,1005.91,VALID,0,VALID,90.9744,VALID,0,VALID,23.7832,VALID,284,VALID,1.50781,
2012-03-24, 00:20:04,VALID,1005.92,VALID,0,VALID,91.4092,VALID,0,VALID,23.6841,VALID,276,VALID,2.09258,
2012-03-24, 00:21:04,VALID,1005.79,VALID,0,VALID,91.5542,VALID,0,VALID,23.5868,VALID,290,VALID,2.18359,
2012-03-24, 00:22:04,VALID,1005.79,VALID,0,VALID,91.4092,VALID,0,VALID,23.5284,VALID,294,VALID,2.29727,
2012-03-24, 00:23:04,VALID,1005.75,VALID,0.5,VALID,91.6763,VALID,0,VALID,23.4293,VALID,319,VALID,2.24375,
2012-03-24, 00:24:04,VALID,1005.75,VALID,0.5,VALID,92.1721,VALID,0,VALID,23.3514,VALID,313,VALID,1.37656,
2012-03-24, 00:25:04,VALID,1005.71,VALID,0.5,VALID,92.1264,VALID,0,VALID,23.2754,VALID,293,VALID,3.09258,
2012-03-24, 00:26:04,VALID,1005.68,VALID,0,VALID,92.729,VALID,0,VALID,23.1975,VALID,301,VALID,1.73516,
2012-03-24, 00:27:04,VALID,1005.58,VALID,0.5,VALID,92.9884,VALID,0,VALID,23.1391,VALID,265,VALID,1.54023,
2012-03-24, 00:28:04,VALID,1005.57,VALID,0,VALID,93.2936,VALID,0,VALID,23.079,VALID,277,VALID,2.12969,
2012-03-24, 00:29:04,VALID,1005.49,VALID,0,VALID,93.3928,VALID,0,VALID,23.0206,VALID,294,VALID,2.62539,
2012-03-24, 00:30:04,VALID,1005.44,VALID,0.5,VALID,93.6292,VALID,0,VALID,22.9817,VALID,293,VALID,1.56133,
2012-03-24, 00:31:04,VALID,1005.37,VALID,0,VALID,93.6369,VALID,0,VALID,22.9834,VALID,298,VALID,3.0582,
2012-03-24, 00:32:04,VALID,1005.31,VALID,0.5,VALID,93.8352,VALID,0,VALID,22.964,VALID,344,VALID,2.30469,
2012-03-24, 00:33:04,VALID,1005.34,VALID,0,VALID,94.0183,VALID,0,VALID,22.9233,VALID,286,VALID,1.75625,
2012-03-24, 00:34:04,VALID,1005.26,VALID,0.5,VALID,94.1785,VALID,0,VALID,22.9428,VALID,343,VALID,1.77383,
2012-03-24, 00:35:04,VALID,1005.22,VALID,0,VALID,94.293,VALID,0,VALID,22.964,VALID,330,VALID,0.733594,
2012-03-24, 00:36:04,VALID,1005.19,VALID,0,VALID,94.3082,VALID,0,VALID,22.964,VALID,211,VALID,0.60625,
2012-03-24, 00:37:04,VALID,1005.14,VALID,0,VALID,94.354,VALID,0,VALID,22.9445,VALID,339,VALID,1.38047,
2012-03-24, 00:38:04,VALID,1005.14,VALID,0.5,VALID,94.2624,VALID,0,VALID,22.9251,VALID,299,VALID,1.48438,
2012-03-24, 00:39:04,VALID,1005.09,VALID,0,VALID,94.2167,VALID,0,VALID,22.9268,VALID,327,VALID,1.48828,
2012-03-24, 00:40:04,VALID,1005.12,VALID,0,VALID,94.1556,VALID,0,VALID,22.9056,VALID,223,VALID,0.50625,
2012-03-24, 00:41:04,VALID,1005.07,VALID,0,VALID,94.1328,VALID,0,VALID,22.8649,VALID,303,VALID,1.05,
2012-03-24, 00:42:04,VALID,1005.05,VALID,0,VALID,94.0794,VALID,0,VALID,22.8861,VALID,306,VALID,1.78203,
2012-03-24, 00:43:04,VALID,1005.04,VALID,0,VALID,93.9497,VALID,0,VALID,22.8455,VALID,289,VALID,1.80703,
2012-03-24, 00:44:04,VALID,1005.04,VALID,0,VALID,93.9191,VALID,0,VALID,22.8667,VALID,335,VALID,1.93086,
2012-03-24, 00:45:04,VALID,1005.05,VALID,0.5,VALID,93.9497,VALID,0,VALID,22.8844,VALID,311,VALID,0.632813,
2012-03-24, 00:46:04,VALID,1005.02,VALID,0,VALID,94.0717,VALID,0,VALID,22.9056,VALID,324,VALID,0.735547,
2012-03-24, 00:47:04,VALID,1004.99,VALID,0,VALID,94.0717,VALID,0,VALID,22.9251,VALID,322,VALID,0.883984,
2012-03-24, 00:48:04,VALID,1004.98,VALID,0,VALID,94.0412,VALID,0,VALID,22.8844,VALID,83,VALID,1.01914,
2012-03-24, 00:49:04,VALID,1004.95,VALID,0,VALID,94.0488,VALID,0,VALID,22.9056,VALID,298,VALID,1.11289,
2012-03-24, 00:50:04,VALID,1004.9,VALID,0,VALID,93.9573,VALID,0,VALID,22.9056,VALID,279,VALID,1.55508,
2012-03-24, 00:51:04,VALID,1004.87,VALID,0,VALID,93.9344,VALID,0,VALID,22.8844,VALID,281,VALID,1.30039,
2012-03-24, 00:52:04,VALID,1004.87,VALID,0.5,VALID,93.9725,VALID,0,VALID,22.9039,VALID,300,VALID,0.463672,
2012-03-24, 00:53:04,VALID,1004.84,VALID,0,VALID,93.9649,VALID,0,VALID,22.9056,VALID,264,VALID,0.901563,
2012-03-24, 00:54:04,VALID,1004.83,VALID,0,VALID,93.9802,VALID,0,VALID,22.9056,VALID,328,VALID,0.871875,
2012-03-24, 00:55:04,VALID,1004.79,VALID,0,VALID,93.8352,VALID,0,VALID,22.8861,VALID,348,VALID,0.716016,
2012-03-24, 00:56:04,VALID,1004.8,VALID,0,VALID,93.8352,VALID,0,VALID,22.9056,VALID,296,VALID,1.25937,
2012-03-24, 00:57:04,VALID,1004.79,VALID,0,VALID,93.8047,VALID,0,VALID,22.8649,VALID,284,VALID,1.38906,
2012-03-24, 00:58:04,VALID,1004.75,VALID,0,VALID,93.6598,VALID,0,VALID,22.8649,VALID,298,VALID,1.76484,
2012-03-24, 00:59:04,VALID,1004.73,VALID,0,VALID,93.5224,VALID,0,VALID,22.8455,VALID,295,VALID,1.89258,
2012-03-24, 01:00:04,VALID,1004.68,VALID,0,VALID,93.5758,VALID,0,VALID,22.8861,VALID,337,VALID,0.803125,
2012-03-24, 01:01:04,VALID,1004.65,VALID,0,VALID,93.6979,VALID,0,VALID,22.8632,VALID,322,VALID,0.744141,
2012-03-24, 01:02:04,VALID,1004.63,VALID,0,VALID,93.6064,VALID,0,VALID,22.9056,VALID,287,VALID,0.984375,
2012-03-24, 01:03:04,VALID,1004.61,VALID,0,VALID,93.5224,VALID,0,VALID,22.8649,VALID,301,VALID,1.59063,
2012-03-24, 01:04:04,VALID,1004.57,VALID,0,VALID,93.7437,VALID,0,VALID,22.8649,VALID,297,VALID,0.229297,
2012-03-24, 01:05:04,VALID,1004.53,VALID,0,VALID,93.614,VALID,0,VALID,22.8649,VALID,284,VALID,1.81523,
2012-03-24, 01:06:04,VALID,1004.51,VALID,0.5,VALID,93.4614,VALID,0,VALID,22.8455,VALID,293,VALID,1.91562,
2012-03-24, 01:07:04,VALID,1004.49,VALID,0,VALID,93.4538,VALID,0,VALID,22.8455,VALID,292,VALID,2.02852,
2012-03-24, 01:08:04,VALID,1004.49,VALID,0,VALID,93.4462,VALID,0,VALID,22.8861,VALID,295,VALID,1.28125,
2012-03-24, 01:09:04,VALID,1004.5,VALID,0,VALID,93.614,VALID,0,VALID,22.8861,VALID,296,VALID,1.15977,
2012-03-24, 01:10:04,VALID,1004.5,VALID,0,VALID,93.7437,VALID,0,VALID,22.8844,VALID,295,VALID,0.833984,
2012-03-24, 01:11:04,VALID,1004.5,VALID,0,VALID,93.675,VALID,0,VALID,22.8649,VALID,303,VALID,0.832422,
2012-03-24, 01:12:04,VALID,1004.5,VALID,0,VALID,93.7132,VALID,0,VALID,22.8861,VALID,295,VALID,1.28945,
2012-03-24, 01:13:04,VALID,1004.49,VALID,0,VALID,93.6521,VALID,0,VALID,22.8455,VALID,287,VALID,1.75117,
2012-03-24, 01:14:04,VALID,1004.53,VALID,0,VALID,93.6445,VALID,0,VALID,22.8649,VALID,287,VALID,1.275,
2012-03-24, 01:15:04,VALID,1004.5,VALID,0,VALID,93.6521,VALID,0,VALID,22.8667,VALID,284,VALID,1.69375,
2012-03-24, 01:16:04,VALID,1004.48,VALID,0,VALID,93.6369,VALID,0,VALID,22.8667,VALID,290,VALID,1.63398,
2012-03-24, 01:17:04,VALID,1004.45,VALID,0,VALID,93.7895,VALID,0,VALID,22.8861,VALID,272,VALID,1.0793,
2012-03-24, 01:18:04,VALID,1004.46,VALID,0,VALID,93.7132,VALID,0,VALID,22.8455,VALID,304,VALID,0.882031,
2012-03-24, 01:19:04,VALID,1004.44,VALID,0,VALID,93.7589,VALID,0,VALID,22.8649,VALID,312,VALID,1.54258,
2012-03-24, 01:20:04,VALID,1004.4,VALID,0,VALID,93.8276,VALID,0,VALID,22.8649,VALID,285,VALID,1.23008,
2012-03-24, 01:21:04,VALID,1004.36,VALID,0,VALID,93.9115,VALID,0,VALID,22.8649,VALID,311,VALID,0.286719,
2012-03-24, 01:22:04,VALID,1004.37,VALID,0,VALID,93.8734,VALID,0,VALID,22.8844,VALID,295,VALID,1.63594,
2012-03-24, 01:23:04,VALID,1004.3,VALID,0,VALID,93.8581,VALID,0,VALID,22.8844,VALID,308,VALID,1.54102,
2012-03-24, 01:24:04,VALID,1004.28,VALID,0,VALID,93.9649,VALID,0,VALID,22.9039,VALID,338,VALID,0.294141,
2012-03-24, 01:25:04,VALID,1004.28,VALID,0,VALID,94.0031,VALID,0,VALID,22.9233,VALID,294,VALID,1.16289,
2012-03-24, 01:26:04,VALID,1004.26,VALID,0,VALID,94.0183,VALID,0.0815089,VALID,22.9021,VALID,322,VALID,0.494141,
2012-03-24, 01:27:04,VALID,1004.22,VALID,0,VALID,94.0183,VALID,0,VALID,22.964,VALID,309,VALID,0.890625,
2012-03-24, 01:28:04,VALID,1004.22,VALID,0,VALID,93.9649,VALID,0,VALID,22.941,VALID,298,VALID,1.56875,
2012-03-24, 01:29:04,VALID,1004.23,VALID,0,VALID,94.0183,VALID,0,VALID,22.941,VALID,344,VALID,0.455469,
2012-03-24, 01:30:04,VALID,1004.22,VALID,0,VALID,94.0794,VALID,0.0815089,VALID,22.98,VALID,293,VALID,0.946875,
2012-03-24, 01:31:04,VALID,1004.18,VALID,0,VALID,94.1022,VALID,0,VALID,22.9994,VALID,280,VALID,0.903125,
2012-03-24, 01:32:04,VALID,1004.15,VALID,0,VALID,94.0107,VALID,0,VALID,23.0206,VALID,305,VALID,1.325,
2012-03-24, 01:33:04,VALID,1004.14,VALID,0,VALID,94.0794,VALID,0,VALID,23.0189,VALID,316,VALID,0.51875,
2012-03-24, 01:34:04,VALID,1004.12,VALID,0,VALID,94.0565,VALID,0,VALID,23.079,VALID,288,VALID,1.32422,
2012-03-24, 01:35:04,VALID,1004.13,VALID,0,VALID,94.0717,VALID,0.0815089,VALID,23.0984,VALID,301,VALID,1.12422,
2012-03-24, 01:36:04,VALID,1004.14,VALID,0,VALID,94.1328,VALID,0.0815089,VALID,23.1179,VALID,298,VALID,0.423438,
2012-03-24, 01:37:04,VALID,1004.14,VALID,0,VALID,94.0641,VALID,0,VALID,23.1374,VALID,289,VALID,1.50391,
2012-03-24, 01:38:04,VALID,1004.14,VALID,0,VALID,94.0336,VALID,0,VALID,23.1763,VALID,289,VALID,0.791406,
2012-03-24, 01:39:04,VALID,1004.17,VALID,0,VALID,94.0946,VALID,0,VALID,23.1957,VALID,292,VALID,0.864844,
2012-03-24, 01:40:04,VALID,1004.16,VALID,0,VALID,94.0107,VALID,0,VALID,23.1957,VALID,303,VALID,1.01914,
2012-03-24, 01:41:04,VALID,1004.19,VALID,0,VALID,94.0717,VALID,0,VALID,23.2152,VALID,322,VALID,0.701953,
2012-03-24, 01:42:04,VALID,1004.19,VALID,0,VALID,94.1099,VALID,0.0815089,VALID,23.2347,VALID,355,VALID,0.221484,
2012-03-24, 01:43:04,VALID,1004.12,VALID,0,VALID,94.1785,VALID,0,VALID,23.2541,VALID,306,VALID,0.515234,
2012-03-24, 01:44:04,VALID,1004.12,VALID,0,VALID,94.1938,VALID,0.0815089,VALID,23.2541,VALID,324,VALID,0.19375,
2012-03-24, 01:45:04,VALID,1004.1,VALID,0,VALID,94.2396,VALID,0,VALID,23.2736,VALID,279,VALID,0.308203,
2012-03-24, 01:46:04,VALID,1004.09,VALID,0,VALID,94.2777,VALID,0,VALID,23.3143,VALID,295,VALID,0.577344,
2012-03-24, 01:47:04,VALID,1004.09,VALID,0,VALID,94.3158,VALID,0,VALID,23.2931,VALID,332,VALID,0.252344,
2012-03-24, 01:48:04,VALID,1004.09,VALID,0,VALID,94.3311,VALID,0,VALID,23.3125,VALID,350,VALID,0.342969,
2012-03-24, 01:49:04,VALID,1004.08,VALID,0,VALID,94.3387,VALID,0,VALID,23.3107,VALID,317,VALID,0.200781,
2012-03-24, 01:50:04,VALID,1004.05,VALID,0,VALID,94.3311,VALID,0.0815089,VALID,23.332,VALID,319,VALID,0.385547,
2012-03-24, 01:51:04,VALID,1004.07,VALID,0,VALID,94.3616,VALID,0,VALID,23.3107,VALID,289,VALID,0.240625,
2012-03-24, 01:52:04,VALID,1004.03,VALID,0,VALID,94.3769,VALID,0,VALID,23.332,VALID,290,VALID,0.242188,
2012-03-24, 01:53:04,VALID,1003.99,VALID,0,VALID,94.4074,VALID,0.0815089,VALID,23.3532,VALID,235,VALID,0.519531,
2012-03-24, 01:54:04,VALID,1004,VALID,0,VALID,94.3616,VALID,0,VALID,23.3302,VALID,316,VALID,1.31016,
2012-03-24, 01:55:04,VALID,1003.96,VALID,0,VALID,94.3616,VALID,0.0815089,VALID,23.3514,VALID,292,VALID,1.13906,
2012-03-24, 01:56:04,VALID,1003.92,VALID,0,VALID,94.4074,VALID,0,VALID,23.3709,VALID,305,VALID,0.583594,
2012-03-24, 01:57:04,VALID,1003.87,VALID,0,VALID,94.3998,VALID,0.0815089,VALID,23.4098,VALID,310,VALID,0.349219,
2012-03-24, 01:58:04,VALID,1003.83,VALID,0,VALID,94.3921,VALID,0.0815089,VALID,23.47,VALID,279,VALID,1.29688,
2012-03-24, 01:59:04,VALID,1003.79,VALID,0,VALID,94.3387,VALID,0.0815089,VALID,23.4682,VALID,289,VALID,0.824609,
2012-03-24, 02:00:04,VALID,1003.77,VALID,0,VALID,94.3082,VALID,0,VALID,23.4877,VALID,306,VALID,1.19062,
2012-03-24, 02:01:04,VALID,1003.74,VALID,0,VALID,94.2319,VALID,0,VALID,23.5071,VALID,284,VALID,2.20781,
2012-03-24, 02:02:04,VALID,1003.74,VALID,0,VALID,94.0488,VALID,0.0815089,VALID,23.5266,VALID,301,VALID,1.23594,
2012-03-24, 02:03:04,VALID,1003.71,VALID,0,VALID,94.0946,VALID,0,VALID,23.5655,VALID,287,VALID,1.07148,
2012-03-24, 02:04:04,VALID,1003.73,VALID,0,VALID,94.0488,VALID,0,VALID,23.585,VALID,302,VALID,1.08828,
2012-03-24, 02:05:04,VALID,1003.74,VALID,0,VALID,94.0031,VALID,0,VALID,23.6044,VALID,307,VALID,1.23477,
2012-03-24, 02:06:04,VALID,1003.72,VALID,0,VALID,94.0488,VALID,0,VALID,23.6239,VALID,282,VALID,0.121094,
2012-03-24, 02:07:04,VALID,1003.73,VALID,0,VALID,93.9344,VALID,0.0815089,VALID,23.6239,VALID,293,VALID,1.05469,
2012-03-24, 02:08:04,VALID,1003.74,VALID,0,VALID,93.9802,VALID,0,VALID,23.6434,VALID,324,VALID,1.00195,
2012-03-24, 02:09:04,VALID,1003.74,VALID,0,VALID,93.9115,VALID,0.0815089,VALID,23.6628,VALID,282,VALID,0.885156,
2012-03-24, 02:10:04,VALID,1003.72,VALID,0,VALID,93.9039,VALID,0.0815089,VALID,23.6823,VALID,309,VALID,0.4875,
2012-03-24, 02:11:04,VALID,1003.73,VALID,0,VALID,93.8429,VALID,0,VALID,23.6823,VALID,300,VALID,1.01367,
2012-03-24, 02:12:04,VALID,1003.7,VALID,0,VALID,93.8276,VALID,0,VALID,23.7017,VALID,282,VALID,0.848828,
2012-03-24, 02:13:04,VALID,1003.69,VALID,0,VALID,93.6064,VALID,0.0815089,VALID,23.7212,VALID,287,VALID,1.43945,
2012-03-24, 02:14:04,VALID,1003.71,VALID,0,VALID,93.4385,VALID,0.0815089,VALID,23.7407,VALID,296,VALID,1.79648,
2012-03-24, 02:15:04,VALID,1003.71,VALID,0,VALID,93.4233,VALID,0,VALID,23.7194,VALID,341,VALID,0.637109,
2012-03-24, 02:16:04,VALID,1003.7,VALID,0,VALID,93.3775,VALID,0,VALID,23.7814,VALID,298,VALID,1.05195,
2012-03-24, 02:17:04,VALID,1003.71,VALID,0,VALID,93.3394,VALID,0.0815089,VALID,23.7778,VALID,295,VALID,0.792969,
2012-03-24, 02:18:04,VALID,1003.71,VALID,0,VALID,93.3622,VALID,0.0815089,VALID,23.7991,VALID,292,VALID,0.647656,
2012-03-24, 02:19:04,VALID,1003.71,VALID,0,VALID,93.3241,VALID,0,VALID,23.8185,VALID,309,VALID,0.839844,
2012-03-24, 02:20:04,VALID,1003.67,VALID,0,VALID,93.3012,VALID,0,VALID,23.7991,VALID,304,VALID,0.782031,
2012-03-24, 02:21:04,VALID,1003.67,VALID,0,VALID,93.3088,VALID,0.0815089,VALID,23.8185,VALID,303,VALID,0.448047,
2012-03-24, 02:22:04,VALID,1003.66,VALID,0,VALID,93.2859,VALID,0.0815089,VALID,23.8185,VALID,289,VALID,0.976172,
2012-03-24, 02:23:04,VALID,1003.63,VALID,0,VALID,93.1639,VALID,0,VALID,23.838,VALID,291,VALID,1.13203,
2012-03-24, 02:24:04,VALID,1003.58,VALID,0,VALID,93.1791,VALID,0,VALID,23.8593,VALID,289,VALID,1.40352,
2012-03-24, 02:25:04,VALID,1003.59,VALID,0,VALID,93.0037,VALID,0.0815089,VALID,23.8769,VALID,304,VALID,1.73984,
2012-03-24, 02:26:04,VALID,1003.58,VALID,0,VALID,93.1791,VALID,0,VALID,23.8964,VALID,305,VALID,0.474609,
2012-03-24, 02:27:04,VALID,1003.59,VALID,0,VALID,93.1486,VALID,0,VALID,23.8964,VALID,294,VALID,0.804297,
2012-03-24, 02:28:04,VALID,1003.59,VALID,0,VALID,93.1791,VALID,0,VALID,23.8964,VALID,291,VALID,0.464453,
2012-03-24, 02:29:04,VALID,1003.58,VALID,0,VALID,93.2249,VALID,0,VALID,23.8964,VALID,286,VALID,0.733984,
2012-03-24, 02:30:04,VALID,1003.6,VALID,0,VALID,93.2249,VALID,0,VALID,23.8964,VALID,298,VALID,0.871875,
2012-03-24, 02:31:04,VALID,1003.57,VALID,0,VALID,93.3088,VALID,0,VALID,23.8964,VALID,290,VALID,0.819531,
2012-03-24, 02:32:04,VALID,1003.56,VALID,0,VALID,93.347,VALID,0,VALID,23.9159,VALID,284,VALID,1.0125,
2012-03-24, 02:33:04,VALID,1003.54,VALID,0,VALID,93.4233,VALID,0,VALID,23.8751,VALID,359,VALID,0.373047,
2012-03-24, 02:34:04,VALID,1003.55,VALID,0,VALID,93.4919,VALID,0,VALID,23.8964,VALID,286,VALID,0.0398437,
2012-03-24, 02:35:04,VALID,1003.53,VALID,0,VALID,93.5224,VALID,0,VALID,23.914,VALID,311,VALID,0,
2012-03-24, 02:36:04,VALID,1003.54,VALID,0,VALID,93.5453,VALID,0,VALID,23.914,VALID,324,VALID,0.263672,
2012-03-24, 02:37:04,VALID,1003.54,VALID,0,VALID,93.5148,VALID,0,VALID,23.9159,VALID,314,VALID,0.247266,
2012-03-24, 02:38:04,VALID,1003.57,VALID,0,VALID,93.5453,VALID,0,VALID,23.9159,VALID,267,VALID,0.224609,
2012-03-24, 02:39:04,VALID,1003.54,VALID,0,VALID,93.5987,VALID,0,VALID,23.9159,VALID,350,VALID,0.546875,
2012-03-24, 02:40:04,VALID,1003.55,VALID,0,VALID,93.5835,VALID,0.0815089,VALID,23.914,VALID,346,VALID,0.671484,
2012-03-24, 02:41:04,VALID,1003.59,VALID,0,VALID,93.5682,VALID,0,VALID,23.9159,VALID,351,VALID,0.884375,
2012-03-24, 02:42:04,VALID,1003.56,VALID,0,VALID,93.5758,VALID,0,VALID,23.8964,VALID,327,VALID,0.976563,
2012-03-24, 02:43:04,VALID,1003.58,VALID,0,VALID,93.5911,VALID,0,VALID,23.8964,VALID,339,VALID,0.808594,
2012-03-24, 02:44:04,VALID,1003.57,VALID,0,VALID,93.5987,VALID,0,VALID,23.8964,VALID,330,VALID,0.574609,
2012-03-24, 02:45:04,VALID,1003.6,VALID,0,VALID,93.6064,VALID,0,VALID,23.9177,VALID,340,VALID,0.666406,
2012-03-24, 02:46:04,VALID,1003.58,VALID,0,VALID,93.553,VALID,0,VALID,23.8769,VALID,342,VALID,0.971094,
2012-03-24, 02:47:04,VALID,1003.58,VALID,0,VALID,93.5682,VALID,0,VALID,23.8769,VALID,352,VALID,0.56875,
2012-03-24, 02:48:04,VALID,1003.54,VALID,0,VALID,93.5606,VALID,0.0815089,VALID,23.8575,VALID,342,VALID,0.644531,
2012-03-24, 02:49:04,VALID,1003.53,VALID,0,VALID,93.6064,VALID,0,VALID,23.8575,VALID,335,VALID,0.54375,
2012-03-24, 02:50:04,VALID,1003.55,VALID,0,VALID,93.6216,VALID,0,VALID,23.8787,VALID,339,VALID,0.660156,
2012-03-24, 02:51:04,VALID,1003.53,VALID,0,VALID,93.6521,VALID,0,VALID,23.8575,VALID,336,VALID,0.831641,
2012-03-24, 02:52:04,VALID,1003.51,VALID,0,VALID,93.6598,VALID,0,VALID,23.8575,VALID,334,VALID,0.601172,
2012-03-24, 02:53:04,VALID,1003.53,VALID,0,VALID,93.7361,VALID,0,VALID,23.8575,VALID,11,VALID,0.741406,
2012-03-24, 02:54:04,VALID,1003.53,VALID,0,VALID,93.7361,VALID,0.0815089,VALID,23.8769,VALID,3,VALID,0.346484,
2012-03-24, 02:55:04,VALID,1003.53,VALID,0,VALID,93.7132,VALID,0,VALID,23.8769,VALID,327,VALID,0.254297,
2012-03-24, 02:56:04,VALID,1003.54,VALID,0,VALID,93.7513,VALID,0.0815089,VALID,23.8964,VALID,331,VALID,0,
2012-03-24, 02:57:04,VALID,1003.55,VALID,0,VALID,93.7284,VALID,0,VALID,23.8769,VALID,334,VALID,0.329297,
2012-03-24, 02:58:04,VALID,1003.57,VALID,0,VALID,93.7208,VALID,0.0815089,VALID,23.8769,VALID,320,VALID,0.288281,
2012-03-24, 02:59:04,VALID,1003.57,VALID,0,VALID,93.7361,VALID,0,VALID,23.8769,VALID,309,VALID,0,
2012-03-24, 03:00:04,VALID,1003.6,VALID,0,VALID,93.7742,VALID,0,VALID,23.8556,VALID,351,VALID,0.307813,
2012-03-24, 03:01:04,VALID,1003.6,VALID,0,VALID,93.7742,VALID,0,VALID,23.8575,VALID,3,VALID,0.459766,
2012-03-24, 03:02:04,VALID,1003.58,VALID,0,VALID,93.7437,VALID,0.0815089,VALID,23.8556,VALID,9,VALID,0.528516,
2012-03-24, 03:03:04,VALID,1003.61,VALID,0,VALID,93.7284,VALID,0.0815089,VALID,23.8575,VALID,355,VALID,0.573828,
2012-03-24, 03:04:04,VALID,1003.59,VALID,0,VALID,93.7361,VALID,0,VALID,23.8769,VALID,355,VALID,0.244922,
2012-03-24, 03:05:04,VALID,1003.58,VALID,0,VALID,93.7513,VALID,0,VALID,23.8769,VALID,355,VALID,0,
2012-03-24, 03:06:04,VALID,1003.61,VALID,0,VALID,93.7818,VALID,0,VALID,23.8769,VALID,348,VALID,0.150781,
2012-03-24, 03:07:04,VALID,1003.63,VALID,0,VALID,93.7513,VALID,0.0815089,VALID,23.8769,VALID,340,VALID,0,
2012-03-24, 03:08:04,VALID,1003.63,VALID,0,VALID,93.8276,VALID,0,VALID,23.8964,VALID,340,VALID,0,
2012-03-24, 03:09:04,VALID,1003.64,VALID,0,VALID,93.82,VALID,0,VALID,23.8964,VALID,340,VALID,0,
2012-03-24, 03:10:04,VALID,1003.62,VALID,0,VALID,93.8352,VALID,0.0815089,VALID,23.9177,VALID,340,VALID,0,
2012-03-24, 03:11:04,VALID,1003.63,VALID,0,VALID,93.7589,VALID,0,VALID,23.8964,VALID,336,VALID,0,
2012-03-24, 03:12:04,VALID,1003.65,VALID,0,VALID,93.7589,VALID,0,VALID,23.8946,VALID,327,VALID,0,
2012-03-24, 03:13:04,VALID,1003.62,VALID,0,VALID,93.7284,VALID,0,VALID,23.8946,VALID,3,VALID,0.436719,
2012-03-24, 03:14:04,VALID,1003.67,VALID,0,VALID,93.7055,VALID,0,VALID,23.914,VALID,2,VALID,0.525391,
2012-03-24, 03:15:04,VALID,1003.7,VALID,0,VALID,93.6598,VALID,0,VALID,23.9353,VALID,337,VALID,0.332812,
2012-03-24, 03:16:04,VALID,1003.7,VALID,0,VALID,93.6292,VALID,0.0815089,VALID,23.9548,VALID,291,VALID,0.606641,
2012-03-24, 03:17:04,VALID,1003.7,VALID,0,VALID,93.675,VALID,0.0815089,VALID,23.9742,VALID,293,VALID,0.242188,
2012-03-24, 03:18:04,VALID,1003.75,VALID,0,VALID,93.5911,VALID,0,VALID,23.9548,VALID,280,VALID,0.855469,
2012-03-24, 03:19:04,VALID,1003.76,VALID,0,VALID,93.4996,VALID,0,VALID,23.914,VALID,290,VALID,0.813672,
2012-03-24, 03:20:04,VALID,1003.77,VALID,0,VALID,93.5606,VALID,0.0815089,VALID,23.9548,VALID,290,VALID,0.165234,
2012-03-24, 03:21:04,VALID,1003.75,VALID,0,VALID,93.6216,VALID,0,VALID,23.9548,VALID,290,VALID,0,
2012-03-24, 03:22:04,VALID,1003.74,VALID,0,VALID,93.6598,VALID,0,VALID,23.953,VALID,290,VALID,0.0183594,
2012-03-24, 03:23:04,VALID,1003.75,VALID,0,VALID,93.6979,VALID,0.0815089,VALID,23.9548,VALID,290,VALID,0.00234375,
2012-03-24, 03:24:04,VALID,1003.7,VALID,0,VALID,93.7132,VALID,0.0815089,VALID,23.9548,VALID,298,VALID,0.322266,
2012-03-24, 03:25:04,VALID,1003.7,VALID,0,VALID,93.7132,VALID,0,VALID,23.9353,VALID,300,VALID,0,
2012-03-24, 03:26:04,VALID,1003.67,VALID,0,VALID,93.7208,VALID,0,VALID,23.914,VALID,300,VALID,0,
2012-03-24, 03:27:04,VALID,1003.68,VALID,0,VALID,93.7284,VALID,0.0815089,VALID,23.9353,VALID,302,VALID,0.344141,
2012-03-24, 03:28:04,VALID,1003.66,VALID,0,VALID,93.6903,VALID,0.0815089,VALID,23.9353,VALID,353,VALID,0.310156,
2012-03-24, 03:29:04,VALID,1003.66,VALID,0,VALID,93.6903,VALID,0,VALID,23.9159,VALID,353,VALID,0.330469,
2012-03-24, 03:30:04,VALID,1003.66,VALID,0,VALID,93.6903,VALID,0,VALID,23.9159,VALID,353,VALID,0.213281,
2012-03-24, 03:31:04,VALID,1003.67,VALID,0,VALID,93.7208,VALID,0,VALID,23.9353,VALID,353,VALID,0.0121094,
2012-03-24, 03:32:04,VALID,1003.65,VALID,0,VALID,93.7284,VALID,0,VALID,23.9353,VALID,353,VALID,0,
2012-03-24, 03:33:04,VALID,1003.66,VALID,0,VALID,93.7132,VALID,0,VALID,23.9566,VALID,353,VALID,0,
2012-03-24, 03:34:04,VALID,1003.66,VALID,0,VALID,93.7818,VALID,0,VALID,23.9353,VALID,343,VALID,0.606641,
2012-03-24, 03:35:04,VALID,1003.65,VALID,0,VALID,93.7437,VALID,0,VALID,23.9353,VALID,352,VALID,0.73125,
2012-03-24, 03:36:04,VALID,1003.67,VALID,0,VALID,93.7971,VALID,0.0815089,VALID,23.9548,VALID,341,VALID,0.819531,
2012-03-24, 03:37:04,VALID,1003.7,VALID,0,VALID,93.8047,VALID,0,VALID,23.9548,VALID,345,VALID,0.795703,
2012-03-24, 03:38:04,VALID,1003.69,VALID,0,VALID,93.7971,VALID,0.0815089,VALID,23.9548,VALID,346,VALID,0.630078,
2012-03-24, 03:39:04,VALID,1003.72,VALID,0,VALID,93.7895,VALID,0,VALID,23.9742,VALID,347,VALID,0.739062,
2012-03-24, 03:40:04,VALID,1003.7,VALID,0,VALID,93.7895,VALID,0,VALID,23.9742,VALID,311,VALID,0.147656,
2012-03-24, 03:41:04,VALID,1003.71,VALID,0,VALID,93.8352,VALID,0,VALID,23.9937,VALID,322,VALID,0,
2012-03-24, 03:42:04,VALID,1003.73,VALID,0,VALID,93.8429,VALID,0,VALID,24.0132,VALID,325,VALID,0,
2012-03-24, 03:43:04,VALID,1003.75,VALID,0,VALID,93.8657,VALID,0,VALID,24.0132,VALID,331,VALID,0,